BEIDOU G6

Last updated on Tue Apr 02 2019 03:15:24 GMT+0000 (Coordinated Universal Time)

1 38953U 12059A 19091.54146771 -.00000188 00000-0 00000+0 0 9997 2 38953 1.7061 83.1105 0005915 230.4223 155.0431 1.00272682 23641

Satellite not in orbit

BEIDOU G6